Location: Recife
(8.0585°S, 34.8848°W)
Time: 13:12:35
(UTC-03:00)

Vanguard 1 Rocket - Pass Details

Date: 20 April 2026
Orbit: 655 x 4212 km, 34.3° (Epoch: 12 May)

Event Time Altitude Azimuth Distance (km) Brightness Sun altitude
Rises 20:14:21 0° 282° (WNW) 7,210 12.8 -44.6°
Reaches altitude 10° 20:21:37 10° 298° (WNW) 6,735 12.3 -46.4°
Maximum altitude 20:36:13 19° 337° (NNW) 6,553 11.8 -49.9°
Drops below altitude 10° 20:52:13 10° 16° (NNE) 7,241 11.9 -53.8°
Sets 21:00:58 0° 32° (NNE) 7,872 12.0 -56.0°
